Home > Time Zones > World Clock > Weather > U.S.A. > Napa > Past weeks

Flag for U.S.A. Weather past 2 weeks in Napa, California, U.S.A.

Now
60 °F

Clear.


Feels Like: 60 °F
Forecast: 58 / 80 °F
Wind: 9 mph from West

Location: Napa County Airport

Current Time: Jul 4, 2015 at 10:18:25 PM

Latest Report: Jul 4, 2015 at 9:54 PM


Visibility: 10 mi

Pressure: 29.82 "Hg

Humidity: 90%

Dew point: 57 °F

Location of NapaLocation

Historic Weather in Napa — Graph

°F

Napa temperature yesterday

Maximum temperature yesterday: 77 °F (at 2:54 PM)
Minimum temperature yesterday: 59 °F (at 4:54 AM)
Average temperature yesterday: 67 °F

Past Weeks' High & Low Weather Summary

 TemperatureHumidityPressure
High87 °F (Jun 30, 1:54 PM)97% (Jun 22, 5:54 AM)30.03 "Hg (Jun 22, 5:54 AM)
Low47 °F (Jun 22, 5:54 AM)33% (Jun 30, 1:54 PM)29.75 "Hg (Jun 30, 4:54 PM)
Average65 °F72%29.89 "Hg
* Reported Jun 19 8:54 PM — Jul 4 8:54 PM, Napa, Weather by CustomWeather, © 2015

Note: Actual official high and low records may vary slightly from our data, if they occured in-between our weather recording intervals... More about our weather records

Advertising

Napa weather history for previous 24 hours

 ConditionsComfort  
Time TempWeatherWind HumidityBarometerVisibility
8:54 PM
Sat, Jul 4
63 °FSunny.13 mph81%29.80 "Hg10 mi
7:54 PM69 °FSunny.14 mph63%29.79 "Hg10 mi
6:54 PM73 °FSunny.15 mph55%29.78 "Hg10 mi
5:54 PM73 °FSunny.16 mph62%29.78 "Hg10 mi
4:54 PM75 °FSunny.17 mph60%29.77 "Hg10 mi
3:54 PM75 °FSunny.20 mph58%29.78 "Hg10 mi
2:54 PM76 °FSunny.20 mph56%29.79 "Hg10 mi
1:54 PM76 °FSunny.17 mph56%29.80 "Hg10 mi
12:54 PM75 °FSunny.13 mph58%29.81 "Hg10 mi
11:54 AM73 °FSunny.10 mph62%29.82 "Hg10 mi
10:54 AM70 °FSunny.8 mph66%29.83 "Hg10 mi
9:54 AM66 °FSunny.10 mph70%29.84 "Hg10 mi
8:54 AM63 °FScattered clouds.8 mph78%29.85 "Hg10 mi
7:54 AM59 °FPartly sunny.8 mph90%29.85 "Hg10 mi
6:54 AM57 °FPartly sunny.9 mph96%29.85 "Hg10 mi
5:54 AM57 °FLow clouds.8 mph96%29.85 "Hg10 mi
4:54 AM57 °FLow clouds.7 mph96%29.84 "Hg10 mi
3:54 AM57 °FPassing clouds.9 mph96%29.84 "Hg10 mi
2:54 AM58 °FPassing clouds.10 mph93%29.84 "Hg10 mi
1:54 AM58 °FClear.6 mph93%29.84 "Hg10 mi
12:54 AM58 °FClear.3 mph93%29.85 "Hg10 mi
11:54 PM
Fri, Jul 3
60 °FClear.6 mph90%29.85 "Hg10 mi
10:54 PM61 °FClear.8 mph87%29.85 "Hg10 mi
Weather by CustomWeather, © 2015

See weather overviewHow to use our weather pages